Time,TemperatureF,DewpointF,PressureIn,WindDirection,WindDirectionDegrees,WindSpeedMPH,WindSpeedGustMPH,Humidity,HourlyPrecipIn,Conditions,Clouds,dailyrainin,SolarRadiationWatts/m^2,SoftwareType,DateUTC
2013-09-13 00:22:00,74.0,71.0,-100.00,NNE,12,3.0,6.0,90,0.00,,,0.00,0.000000,,2013-09-13 05:22:00,
2013-09-13 00:33:00,74.0,71.0,-100.00,NNE,12,3.0,6.0,90,0.00,,,0.00,0.000000,,2013-09-13 05:33:00,
2013-09-13 00:43:00,74.0,71.0,-100.00,NNE,12,3.0,6.0,90,0.00,,,0.00,0.000000,,2013-09-13 05:43:00,
2013-09-13 00:50:00,74.0,72.0,-100.00,NW,313,0.0,5.0,93,0.00,,,0.00,0.000000,,2013-09-13 05:50:00,
2013-09-13 01:22:00,74.0,72.0,-100.00,NW,313,0.0,5.0,93,0.00,,,0.00,0.000000,,2013-09-13 06:22:00,
2013-09-13 01:32:00,74.0,72.0,-100.00,NW,313,0.0,5.0,93,0.00,,,0.00,0.000000,,2013-09-13 06:32:00,
2013-09-13 01:42:00,74.0,72.0,-100.00,NW,313,0.0,5.0,93,0.00,,,0.00,0.000000,,2013-09-13 06:42:00,
2013-09-13 01:50:00,73.0,71.0,-100.00,NW,315,0.0,0.0,92,0.00,,,0.00,0.000000,,2013-09-13 06:50:00,
2013-09-13 02:22:00,73.0,71.0,-100.00,NW,315,0.0,0.0,92,0.00,,,0.00,0.000000,,2013-09-13 07:22:00,
2013-09-13 02:33:00,73.0,71.0,-100.00,NW,315,0.0,0.0,92,0.00,,,0.00,0.000000,,2013-09-13 07:33:00,
2013-09-13 02:43:00,73.0,71.0,-100.00,NW,315,0.0,0.0,92,0.00,,,0.00,0.000000,,2013-09-13 07:43:00,
2013-09-13 02:50:00,73.0,71.0,-100.00,WNW,292,0.0,1.0,93,0.00,,,-99.99,0.000000,,2013-09-13 07:50:00,
2013-09-13 03:22:00,73.0,71.0,-100.00,WNW,292,0.0,1.0,93,0.00,,,-99.99,0.000000,,2013-09-13 08:22:00,
2013-09-13 03:32:00,73.0,71.0,-100.00,WNW,292,0.0,1.0,93,0.00,,,-99.99,0.000000,,2013-09-13 08:32:00,
2013-09-13 03:42:00,73.0,71.0,-100.00,WNW,292,0.0,1.0,93,0.00,,,-99.99,0.000000,,2013-09-13 08:42:00,
2013-09-13 03:50:00,73.0,71.0,-100.00,NE,41,0.0,3.0,92,0.00,,,0.00,0.000000,,2013-09-13 08:50:00,
2013-09-13 04:21:00,73.0,71.0,-100.00,NE,41,0.0,3.0,92,0.00,,,0.00,0.000000,,2013-09-13 09:21:00,
2013-09-13 04:33:00,73.0,71.0,-100.00,NE,41,0.0,3.0,92,0.00,,,0.00,0.000000,,2013-09-13 09:33:00,
2013-09-13 04:43:00,73.0,71.0,-100.00,NE,41,0.0,3.0,92,0.00,,,0.00,0.000000,,2013-09-13 09:43:00,
2013-09-13 04:50:00,70.0,68.0,-100.00,NE,41,0.0,3.0,95,0.00,,,0.00,0.000000,,2013-09-13 09:50:00,
2013-09-13 05:23:00,70.0,68.0,-100.00,NE,41,0.0,3.0,95,0.00,,,0.00,0.000000,,2013-09-13 10:23:00,
2013-09-13 05:33:00,70.0,68.0,-100.00,NE,41,0.0,3.0,95,0.00,,,0.00,0.000000,,2013-09-13 10:33:00,
2013-09-13 05:42:00,70.0,68.0,-100.00,NE,41,0.0,3.0,95,0.00,,,0.00,0.000000,,2013-09-13 10:42:00,
2013-09-13 05:50:00,71.0,69.0,-100.00,NE,52,0.0,2.0,95,0.00,,,0.00,0.000000,,2013-09-13 10:50:00,
2013-09-13 06:22:00,71.0,69.0,-100.00,NE,52,0.0,2.0,95,0.00,,,0.00,0.000000,,2013-09-13 11:22:00,
2013-09-13 06:33:00,71.0,69.0,-100.00,NE,52,0.0,2.0,95,0.00,,,0.00,0.000000,,2013-09-13 11:33:00,
2013-09-13 06:42:00,71.0,69.0,-100.00,NE,52,0.0,2.0,95,0.00,,,0.00,0.000000,,2013-09-13 11:42:00,
2013-09-13 06:50:00,71.0,70.0,-100.00,North,4,3.0,3.0,96,0.00,,,-99.99,1.000000,,2013-09-13 11:50:00,
2013-09-13 07:22:00,71.0,70.0,-100.00,North,4,3.0,3.0,96,0.00,,,-99.99,1.000000,,2013-09-13 12:22:00,
2013-09-13 07:32:00,71.0,70.0,-100.00,North,4,3.0,3.0,96,0.00,,,-99.99,1.000000,,2013-09-13 12:32:00,
2013-09-13 07:42:00,71.0,70.0,-100.00,North,4,3.0,3.0,96,0.00,,,-99.99,1.000000,,2013-09-13 12:42:00,
2013-09-13 07:50:00,74.0,72.0,-100.00,NNE,13,2.0,4.0,92,0.00,,,0.00,86.000000,,2013-09-13 12:50:00,
2013-09-13 08:21:00,74.0,72.0,-100.00,NNE,13,2.0,4.0,92,0.00,,,0.00,86.000000,,2013-09-13 13:21:00,
2013-09-13 08:32:00,74.0,72.0,-100.00,NNE,13,2.0,4.0,92,0.00,,,0.00,86.000000,,2013-09-13 13:32:00,
2013-09-13 08:42:00,74.0,72.0,-100.00,NNE,13,2.0,4.0,92,0.00,,,0.00,86.000000,,2013-09-13 13:42:00,
2013-09-13 08:50:00,81.0,73.0,-100.00,NNW,348,4.0,6.0,78,0.00,,,-99.99,284.000000,,2013-09-13 13:50:00,
2013-09-13 09:22:00,81.0,73.0,-100.00,NNW,348,4.0,6.0,78,0.00,,,-99.99,284.000000,,2013-09-13 14:22:00,
2013-09-13 09:32:00,81.0,73.0,-100.00,NNW,348,4.0,6.0,78,0.00,,,-99.99,284.000000,,2013-09-13 14:32:00,
2013-09-13 09:42:00,81.0,73.0,-100.00,NNW,348,4.0,6.0,78,0.00,,,-99.99,284.000000,,2013-09-13 14:42:00,
2013-09-13 09:50:00,86.0,69.0,-100.00,NW,313,4.0,7.0,57,0.00,,,0.00,485.000000,,2013-09-13 14:50:00,
2013-09-13 10:22:00,86.0,69.0,-100.00,NW,313,4.0,7.0,57,0.00,,,0.00,485.000000,,2013-09-13 15:22:00,
2013-09-13 10:34:00,86.0,69.0,-100.00,NW,313,4.0,7.0,57,0.00,,,0.00,485.000000,,2013-09-13 15:34:00,
2013-09-13 10:43:00,86.0,69.0,-100.00,NW,313,4.0,7.0,57,0.00,,,0.00,485.000000,,2013-09-13 15:43:00,
2013-09-13 10:50:00,88.0,69.0,-100.00,NNW,337,4.0,8.0,53,0.00,,,0.00,658.000000,,2013-09-13 15:50:00,
2013-09-13 11:24:00,88.0,69.0,-100.00,NNW,337,4.0,8.0,53,0.00,,,0.00,658.000000,,2013-09-13 16:24:00,
2013-09-13 11:33:00,88.0,69.0,-100.00,NNW,337,4.0,8.0,53,0.00,,,0.00,658.000000,,2013-09-13 16:33:00,
2013-09-13 11:43:00,88.0,69.0,-100.00,NNW,337,4.0,8.0,53,0.00,,,0.00,658.000000,,2013-09-13 16:43:00,
2013-09-13 11:50:00,91.0,69.0,-100.00,North,360,4.0,9.0,48,0.00,,,0.00,822.000000,,2013-09-13 16:50:00,
2013-09-13 12:24:00,91.0,69.0,-100.00,North,360,4.0,9.0,48,0.00,,,0.00,822.000000,,2013-09-13 17:24:00,
2013-09-13 12:33:00,91.0,69.0,-100.00,North,360,4.0,9.0,48,0.00,,,0.00,822.000000,,2013-09-13 17:33:00,
2013-09-13 12:44:00,91.0,69.0,-100.00,North,360,4.0,9.0,48,0.00,,,0.00,822.000000,,2013-09-13 17:44:00,
2013-09-13 12:50:00,91.0,67.0,-100.00,NW,318,3.0,9.0,46,0.00,,,0.00,704.000000,,2013-09-13 17:50:00,
2013-09-13 13:22:00,91.0,67.0,-100.00,NW,318,3.0,9.0,46,0.00,,,0.00,704.000000,,2013-09-13 18:22:00,
2013-09-13 13:32:00,91.0,67.0,-100.00,NW,318,3.0,9.0,46,0.00,,,0.00,704.000000,,2013-09-13 18:32:00,
2013-09-13 13:42:00,91.0,67.0,-100.00,NW,318,3.0,9.0,46,0.00,,,0.00,704.000000,,2013-09-13 18:42:00,
2013-09-13 13:50:00,92.0,66.0,-100.00,NW,318,4.0,11.0,42,0.00,,,0.00,823.000000,,2013-09-13 18:50:00,
2013-09-13 14:22:00,92.0,66.0,-100.00,NW,318,4.0,11.0,42,0.00,,,0.00,823.000000,,2013-09-13 19:22:00,
2013-09-13 14:32:00,92.0,66.0,-100.00,NW,318,4.0,11.0,42,0.00,,,0.00,823.000000,,2013-09-13 19:32:00,
2013-09-13 14:43:00,92.0,66.0,-100.00,NW,318,4.0,11.0,42,0.00,,,0.00,823.000000,,2013-09-13 19:43:00,
2013-09-13 15:50:00,91.0,70.0,-100.00,SSE,156,6.0,10.0,51,-99.99,,,0.00,502.000000,,2013-09-13 20:50:00,
2013-09-13 16:22:00,91.0,70.0,-100.00,SSE,156,6.0,10.0,51,-99.99,,,0.00,502.000000,,2013-09-13 21:22:00,
2013-09-13 16:34:00,91.0,70.0,-100.00,SSE,156,6.0,10.0,51,-99.99,,,0.00,502.000000,,2013-09-13 21:34:00,
2013-09-13 16:44:00,91.0,70.0,-100.00,SSE,156,6.0,10.0,51,-99.99,,,0.00,502.000000,,2013-09-13 21:44:00,
2013-09-13 16:50:00,90.0,70.0,-100.00,South,181,5.0,11.0,52,0.00,,,0.00,461.000000,,2013-09-13 21:50:00,
2013-09-13 17:24:00,90.0,70.0,-100.00,South,181,5.0,11.0,52,0.00,,,0.00,461.000000,,2013-09-13 22:24:00,
2013-09-13 17:33:00,90.0,70.0,-100.00,South,181,5.0,11.0,52,0.00,,,0.00,461.000000,,2013-09-13 22:33:00,
2013-09-13 17:43:00,90.0,70.0,-100.00,South,181,5.0,11.0,52,0.00,,,0.00,461.000000,,2013-09-13 22:43:00,
2013-09-13 17:50:00,86.0,69.0,-100.00,SSW,195,4.0,10.0,58,0.00,,,0.00,155.000000,,2013-09-13 22:50:00,
2013-09-13 18:22:00,86.0,69.0,-100.00,SSW,195,4.0,10.0,58,0.00,,,0.00,155.000000,,2013-09-13 23:22:00,
2013-09-13 18:33:00,86.0,69.0,-100.00,SSW,195,4.0,10.0,58,0.00,,,0.00,155.000000,,2013-09-13 23:33:00,
2013-09-13 18:42:00,86.0,69.0,-100.00,SSW,195,4.0,10.0,58,0.00,,,0.00,155.000000,,2013-09-13 23:42:00,
2013-09-13 19:50:00,82.0,71.0,-100.00,SW,222,1.0,4.0,69,-99.99,,,0.00,1.000000,,2013-09-14 00:50:00,
2013-09-13 20:22:00,82.0,71.0,-100.00,SW,222,1.0,4.0,69,-99.99,,,0.00,1.000000,,2013-09-14 01:22:00,
2013-09-13 20:33:00,82.0,71.0,-100.00,SW,222,1.0,4.0,69,-99.99,,,0.00,1.000000,,2013-09-14 01:33:00,
2013-09-13 20:42:00,82.0,71.0,-100.00,SW,222,1.0,4.0,69,-99.99,,,0.00,1.000000,,2013-09-14 01:42:00,
2013-09-13 20:50:00,79.0,71.0,-100.00,ENE,58,0.0,4.0,76,0.00,,,0.00,0.000000,,2013-09-14 01:50:00,
2013-09-13 21:22:00,79.0,71.0,-100.00,ENE,58,0.0,4.0,76,0.00,,,0.00,0.000000,,2013-09-14 02:22:00,
2013-09-13 21:33:00,79.0,71.0,-100.00,ENE,58,0.0,4.0,76,0.00,,,0.00,0.000000,,2013-09-14 02:33:00,
2013-09-13 21:42:00,79.0,71.0,-100.00,ENE,58,0.0,4.0,76,0.00,,,0.00,0.000000,,2013-09-14 02:42:00,
2013-09-13 21:50:00,79.0,71.0,-100.00,North,358,2.0,7.0,76,0.00,,,0.00,0.000000,,2013-09-14 02:50:00,
2013-09-13 22:22:00,79.0,71.0,-100.00,North,358,2.0,7.0,76,0.00,,,0.00,0.000000,,2013-09-14 03:22:00,
2013-09-13 22:34:00,79.0,71.0,-100.00,North,358,2.0,7.0,76,0.00,,,0.00,0.000000,,2013-09-14 03:34:00,
2013-09-13 22:44:00,79.0,71.0,-100.00,North,358,2.0,7.0,76,0.00,,,0.00,0.000000,,2013-09-14 03:44:00,
2013-09-13 22:50:00,79.0,71.0,-100.00,NNE,16,1.0,4.0,76,0.00,,,0.00,0.000000,,2013-09-14 03:50:00,
2013-09-13 23:24:00,79.0,71.0,-100.00,NNE,16,1.0,4.0,76,0.00,,,0.00,0.000000,,2013-09-14 04:24:00,
2013-09-13 23:34:00,79.0,71.0,-100.00,NNE,16,1.0,4.0,76,0.00,,,0.00,0.000000,,2013-09-14 04:34:00,
2013-09-13 23:43:00,79.0,71.0,-100.00,NNE,16,1.0,4.0,76,0.00,,,0.00,0.000000,,2013-09-14 04:43:00,
2013-09-13 23:50:00,79.0,70.0,-100.00,NE,40,1.0,4.0,75,0.00,,,0.00,0.000000,,2013-09-14 04:50:00,